EW9945 Weather Reports


time (UTC)temp
F
wind
direction
speed
knots
gust
knots
rain 1hr
in
rain 24hr
in
rain mn
in
humidity
%
barometer
mb
20260510030054 51 302 2.6 18.2 0.01 0.46 0.30 84 1010.2
20260510024553 52 302 9.6 18.2 0.00 0.45 0.28 87 1010.0
20260510023052 53 244 0.0 0.0 0.00 0.45 0.28 88 1009.0
20260510021551 53 243 0.0 2.6 0.00 0.45 0.28 88 1009.1
20260510020051 54 182 0.0 3.5 0.00 0.45 0.28 87 1008.3
20260510014602 54 126 0.9 6.1 0.00 0.45 0.28 87 1008.0
20260510013050 54 121 3.5 8.7 0.00 0.45 0.28 87 1007.4
20260510011557 54 120 0.0 11.3 0.00 0.45 0.28 88 1007.4
20260510010100 54 123 1.7 7.0 0.00 0.45 0.28 88 1007.3
20260510004555 54 133 0.0 4.3 0.00 0.45 0.28 88 1007.4
20260510003059 54 163 0.0 4.3 0.00 0.45 0.28 88 1007.3
20260510001549 54 113 0.0 4.3 0.00 0.45 0.28 87 1007.0
20260510000054 55 119 0.9 7.0 0.00 0.46 0.28 86 1006.9
20260509234604 55 137 0.0 5.2 0.00 0.46 0.28 85 1007.0
20260509233049 56 139 0.0 0.9 0.00 0.46 0.28 83 1006.8
20260509231548 57 139 0.0 3.5 0.00 0.46 0.28 82 1006.7
20260509230053 57 167 1.7 6.1 0.00 0.46 0.28 82 1006.6
20260509224546 57 144 0.0 3.5 0.00 0.46 0.28 82 1006.5
20260509223055 56 202 0.9 4.3 0.00 0.46 0.28 83 1006.6
20260509221549 56 160 0.0 5.2 0.00 0.46 0.28 84 1006.7
20260509220055 56 152 0.9 4.3 0.00 0.46 0.28 86 1006.7
20260509214543 56 123 2.6 8.7 0.00 0.46 0.28 85 1006.6
20260509213043 56 138 1.7 7.8 0.00 0.46 0.28 86 1006.9
20260509211543 56 197 0.9 6.1 0.00 0.46 0.28 88 1007.0
20260509210038 55 208 1.7 7.0 0.00 0.46 0.28 89 1007.0
20260509204541 54 126 0.0 6.1 0.00 0.46 0.28 91 1007.0
20260509203036 54 205 0.0 7.0 0.02 0.46 0.28 92 1007.3
20260509201531 53 80 0.0 6.1 0.06 0.46 0.28 92 1007.6
20260509200036 52 159 0.0 3.5 0.07 0.46 0.28 93 1007.7
20260509194537 51 131 0.0 3.5 0.08 0.46 0.28 92 1007.7
20260509193036 51 131 0.0 6.1 0.07 0.45 0.28 92 1007.9
20260509191526 52 107 1.7 6.1 0.02 0.40 0.23 92 1007.9
20260509190027 51 117 0.9 8.7 0.02 0.39 0.22 92 1007.9
20260509184522 51 121 1.7 9.6 0.02 0.38 0.21 92 1008.0
20260509183022 51 165 0.9 7.0 0.02 0.38 0.21 92 1008.0
20260509181521 51 116 1.7 7.8 0.03 0.38 0.21 92 1008.0
20260509180018 50 151 1.7 4.3 0.02 0.37 0.20 92 1008.1
20260509174518 50 154 0.0 0.9 0.01 0.36 0.19 92 1008.2
20260509173018 50 154 0.0 3.5 0.01 0.36 0.19 92 1008.2
20260509171516 50 154 0.0 2.6 0.01 0.35 0.18 92 1008.1
20260509170015 50 119 0.0 7.0 0.01 0.35 0.18 92 1008.2
20260509164512 50 144 0.9 4.3 0.01 0.35 0.18 92 1008.1
20260509163018 49 144 0.0 6.1 0.01 0.35 0.18 92 1008.1
20260509161512 49 148 0.9 6.1 0.00 0.34 0.17 92 1008.1
20260509160009 49 111 1.7 10.4 0.00 0.34 0.17 92 1008.3
20260509154506 49 126 0.9 7.8 0.00 0.34 0.17 91 1008.4
20260509153011 49 163 0.9 9.6 0.00 0.34 0.17 91 1008.6
20260509151504 49 120 1.7 7.8 0.00 0.34 0.17 91 1008.7
20260509150008 49 130 0.9 7.8 0.00 0.34 0.17 91 1008.9
20260509144512 49 150 0.9 7.8 0.00 0.34 0.17 91 1008.7
20260509143013 49 107 2.6 7.0 0.00 0.34 0.17 91 1008.6
20260509141502 48 187 0.9 7.0 0.00 0.34 0.17 91 1008.6
20260509140116 48 139 0.0 7.8 0.01 0.34 0.17 91 1008.8
20260509134600 48 155 1.7 7.0 0.02 0.34 0.17 91 1009.0
20260509133104 48 114 0.9 6.1 0.02 0.34 0.17 91 1009.1
20260509131602 48 136 0.0 7.0 0.02 0.34 0.17 91 1009.1
20260509130106 48 146 0.9 8.7 0.01 0.33 0.16 91 1009.2
20260509124606 48 138 1.7 7.0 0.00 0.32 0.15 91 1009.2
20260509123055 47 157 0.9 6.1 0.00 0.32 0.15 91 1009.3
20260509121601 47 124 0.0 6.1 0.01 0.32 0.15 92 1009.4
20260509120051 47 113 0.0 4.3 0.02 0.32 0.15 92 1009.5
20260509114551 47 124 0.0 1.7 0.05 0.32 0.15 92 1009.6
20260509113056 47 124 0.0 4.3 0.06 0.32 0.15 92 1009.7
20260509111556 47 176 0.9 2.6 0.07 0.31 0.14 92 1009.8
20260509110050 47 176 0.9 5.2 0.08 0.30 0.13 92 1009.9
20260509104548 46 160 0.9 9.6 0.08 0.28 0.11 92 1009.8
20260509103046 46 179 0.0 0.0 0.08 0.26 0.09 92 1009.8
20260509101545 46 179 0.0 0.0 0.08 0.25 0.08 92 1009.8
20260509100044 46 179 0.0 0.0 0.07 0.22 0.05 92 1009.6
20260509094544 46 179 0.0 1.7 0.07 0.20 0.03 92 1009.6
20260509093043 46 179 0.0 2.6 0.06 0.19 0.02 92 1009.6
20260509091540 46 180 0.0 0.0 0.04 0.17 0.00 92 1009.5
20260509090041 46 180 0.0 0.0 0.02 0.16 0.15 92 1009.8
20260509084542 46 180 0.0 0.0 0.01 0.14 0.13 92 1010.1
20260509083047 46 180 0.0 2.6 0.01 0.14 0.13 92 1010.1
20260509081537 46 180 0.0 0.0 0.01 0.14 0.13 92 1010.1
20260509080036 46 180 0.0 0.0 0.01 0.14 0.13 92 1010.1
20260509074537 46 180 0.0 0.0 0.01 0.14 0.13 91 1010.0
20260509073038 46 180 0.0 0.0 0.00 0.13 0.12 92 1010.4
20260509071535 46 180 0.0 0.0 0.00 0.13 0.12 91 1010.4
20260509070036 46 180 0.0 0.0 0.00 0.13 0.12 91 1010.4
20260509064536 46 180 0.0 1.7 0.00 0.13 0.12 91 1010.6
20260509063035 46 180 0.0 2.6 0.01 0.13 0.12 91 1010.8
20260509061540 47 180 0.0 0.0 0.01 0.13 0.12 91 1011.3
20260509060037 47 180 0.0 0.0 0.01 0.13 0.12 91 1011.5
20260509054533 47 180 0.0 0.0 0.02 0.13 0.12 91 1011.6
20260509053048 47 180 0.0 0.9 0.04 0.12 0.11 91 1011.8
20260509051533 47 180 0.0 0.0 0.06 0.12 0.11 91 1011.9
20260509050035 47 180 0.0 4.3 0.07 0.12 0.11 91 1011.9
20260509044534 47 183 0.0 3.5 0.07 0.11 0.10 90 1011.9
20260509043031 47 223 0.0 2.6 0.05 0.09 0.08 90 1012.2
20260509041540 48 226 0.0 0.0 0.02 0.06 0.05 90 1012.2
20260509040032 48 226 0.0 0.0 0.02 0.05 0.04 89 1011.8
20260509034531 48 226 0.0 0.0 0.02 0.04 0.03 89 1011.9
20260509033030 48 226 0.0 0.0 0.02 0.04 0.03 89 1011.9
20260509031531 48 226 0.0 0.9 0.02 0.04 0.03 88 1012.1